Regional Weather Roundup
Issued by NWS

Home | Current Version | Previous Version | Graphics & Text | Print | Product List | Glossary On
Versions: 1 2 3 4 5 6 7 8 9 10 11 12 13 14 15 16 17 18 19 20 21 22 23 24 25 26 27 28 29 30 31 32 33 34 35 36 37 38 39 40 41 42 43 44 45 46 47 48 49 50
000
ASUS43 KFSD 291802
RWRSD

WEATHER ROUNDUP FOR SOUTH DAKOTA
NATIONAL WEATHER SERVICE SIOUX FALLS SD
100 PM CDT SAT AUG 29 2015

NOTE: "FAIR" INDICATES FEW OR NO CLOUDS BELOW 12,000 FEET WITH NO
SIGNIFICANT WEATHER AND/OR OBSTRUCTIONS TO VISIBILITY.


SDZ001>005-009-010-012>017-291900-
NORTHWEST AND NORTH CENTRAL SOUTH DAKOTA

CITY           SKY/WX    TMP DP  RH WIND       PRES   REMARKS
FAITH            N/A     85  57  38 S13       29.98F
MOBRIDGE       SUNNY     83  67  58 S8        29.93F
$$

SDZ012>016-024>037-041>051-057-063-072>074-291900-
SOUTHWEST AND SOUTH CENTRAL SOUTH DAKOTA

CITY           SKY/WX    TMP DP  RH WIND       PRES   REMARKS
RAPID CTY ARPT SUNNY     88  59  37 S9        30.03F
PIERRE         SUNNY     83  61  47 SE8       29.97F
CUSTER         SUNNY     83  41  22 SW9G20    30.22F
ELLSWORTH AFB  SUNNY     86  61  42 S8        30.03F
PHILIP         SUNNY     87  60  40 S6        29.98F
PINE RIDGE     SUNNY     89  53  29 S6        30.09F
WINNER         FAIR      83  61  47 CALM      30.03F
$$

SDZ004>011-016>023-039-040-291900-
NORTHEAST SOUTH DAKOTA

CITY           SKY/WX    TMP DP  RH WIND       PRES   REMARKS
ABERDEEN       SUNNY     78  68  71 SW12      29.97F
WATERTOWN      MOSUNNY   74  64  71 S13       30.02F
BROOKINGS      MOSUNNY   72  61  68 SW9       30.07F
$$

SDZ017-020-022-023-036>040-048>070-291900-
SOUTHEAST SOUTH DAKOTA

CITY           SKY/WX    TMP DP  RH WIND       PRES   REMARKS
SIOUX FALLS    MOSUNNY   67  60  78 S7        30.07F
HURON          SUNNY     79  68  69 S10       29.99F
CHAMBERLAIN    SUNNY     78  67  67 S6        30.02F
MITCHELL       SUNNY     76  67  73 S9        30.03F
YANKTON        MOSUNNY   64  61  88 E3        30.06F
$$

ABBREVIATIONS USED IN REMARKS
   TC - TEMPERATURE IN CELSIUS
  WCI - WIND CHILL INDEX
   HX - HEAT INDEX
  VSB - VISIBILITY



USA.gov is the U.S. government's official web portal to all federal, state and local government web resources and services.